Overview Statistics Trail Chart Weather Telemetry Raw packets
 

This is the latest recevied weather packets stored in our database for station/object K7OWW-2. If no packets are shown the sender has not sent any weather packets the latest 10 day(s).

<< 35 36 37 38 39 40 41 >>
Time Temp. Humidity Pressure Rain* Wind** Luminosity Snow
1788031737 17.78° C 42% 1015.4 hPa 0 mm - - -
1788031138 17.22° C 43% 1015.4 hPa 0 mm - - -
1788030840 17.22° C 41% 1015.4 hPa 0 mm - - -
1788030538 17.22° C 44% 1015.4 hPa 0 mm - - -
1788029938 17.22° C 46% 1015.3 hPa 0 mm - - -
1788029338 16.67° C 47% 1015.5 hPa 0 mm - - -
1788029040 16.67° C 49% 1015.5 hPa 0 mm - - -
1788028738 16.11° C 49% 1015.5 hPa 0 mm - - -
1788028138 16.11° C 53% 1015.6 hPa 0 mm - - -
1788027538 15.56° C 54% 1015.6 hPa 0 mm - - -
1788027240 15.56° C 54% 1015.6 hPa 0 mm - - -
1788026938 15.56° C 55% 1015.6 hPa 0 mm - - -
1788026338 15° C 58% 1015.6 hPa 0 mm - - -
1788025738 15° C 59% 1015.7 hPa 0 mm - - -
1788025138 14.44° C 61% 1015.7 hPa 0 mm - - -
1788024538 13.89° C 66% 1015.6 hPa 0 mm - - -
1788023938 13.33° C 65% 1015.5 hPa 0 mm - - -
1788023651 13.33° C 67% 1015.5 hPa 0 mm - - -
1788023338 12.78° C 67% 1015.5 hPa 0 mm - - -
1788022738 13.33° C 67% 1015.6 hPa 0 mm - - -
1788022138 13.33° C 69% 1015.7 hPa 0 mm - - -
1788021840 12.78° C 70% 1015.6 hPa 0 mm - - -
1788021538 12.22° C 69% 1015.7 hPa 0 mm - - -
1788020938 11.67° C 72% 1015.8 hPa 0 mm - - -
1788020338 11.67° C 74% 1015.8 hPa 0 mm - - -

* Rain latest hour (hover to see other rain measurements)
** Current wind speed in m/s (hover to see current wind gust speed)